DLH637 LIML-EDDN

Flight info

Callsign DLH637
Flight time 0h 58m
Altitude 36000
Route PEPAG DCT ABESI N851 UTAVO DCT ROLSA/N0446F370 DCT LOKTA DCT TEDGO N869 LETKU LETKU1T
Aircraft A20N/M-SDE2E3FGHIRWXY/LB1

Departure

Time 2026-05-01 09:46
Airport Milano Linate Airport (LIML)

Arrival

Time 2026-05-01 10:45
Airport Nuremberg Airport (EDDN)
Time Latitude Longitude Altitude Speed Heading
2026-05-01 09:20 45.45970 9.27905 363 ft 0 kts
2026-05-01 09:22 45.45972 9.27850 363 ft 0 kts
2026-05-01 09:36 45.45960 9.27849 366 ft 3 kts
2026-05-01 09:36 45.45940 9.27846 364 ft 3 kts 15°
2026-05-01 09:36 45.45921 9.27836 366 ft 3 kts 38°
2026-05-01 09:36 45.45910 9.27818 363 ft 2 kts 87°
2026-05-01 09:37 45.45910 9.27807 363 ft 1 kts 95°
2026-05-01 09:37 45.45910 9.27806 363 ft 0 kts 95°
2026-05-01 09:40 45.45907 9.27864 364 ft 7 kts 93°
2026-05-01 09:41 45.45900 9.27965 363 ft 11 kts 121°
2026-05-01 09:41 45.45682 9.27983 363 ft 17 kts 180°
2026-05-01 09:41 45.45544 9.27979 362 ft 23 kts 180°
2026-05-01 09:42 45.45377 9.27969 361 ft 23 kts 200°
2026-05-01 09:42 45.45278 9.27900 365 ft 16 kts 205°
2026-05-01 09:42 45.44993 9.27890 359 ft 22 kts 175°
2026-05-01 09:43 45.44647 9.27961 356 ft 29 kts 174°
2026-05-01 09:43 45.44460 9.27982 355 ft 25 kts 175°
2026-05-01 09:43 45.44266 9.28004 362 ft 30 kts 175°
2026-05-01 09:44 45.43818 9.28051 359 ft 30 kts 174°
2026-05-01 09:44 45.43626 9.28072 355 ft 24 kts 175°
2026-05-01 09:44 45.43482 9.28073 353 ft 18 kts 207°
2026-05-01 09:45 45.43443 9.27941 350 ft 14 kts 267°
2026-05-01 09:45 45.43519 9.27815 353 ft 0 kts 354°
2026-05-01 09:46 45.43523 9.27815 356 ft 4 kts 354°
2026-05-01 09:46 45.43819 9.27784 354 ft 100 kts 356°
2026-05-01 09:46 45.44813 9.27677 641 ft 169 kts 358°
2026-05-01 09:46 45.46073 9.27533 1562 ft 194 kts 358°
2026-05-01 09:47 45.47487 9.27331 2752 ft 213 kts 354°
2026-05-01 09:47 45.49025 9.27044 4019 ft 232 kts 355°
2026-05-01 09:47 45.50577 9.26497 5700 ft 229 kts 336°
2026-05-01 09:47 45.52116 9.25364 6535 ft 274 kts 333°
2026-05-01 09:48 45.54018 9.23993 6394 ft 340 kts 336°
2026-05-01 09:48 45.56349 9.22576 6570 ft 366 kts 339°
2026-05-01 09:48 45.58656 9.21595 6973 ft 330 kts 350°
2026-05-01 09:48 45.60877 9.21163 6638 ft 315 kts 354°
2026-05-01 09:49 45.63010 9.20743 6247 ft 305 kts 351°
2026-05-01 09:49 45.65050 9.20168 6013 ft 290 kts 347°
2026-05-01 09:49 45.66958 9.19479 6258 ft 276 kts 346°
2026-05-01 09:49 45.68771 9.18738 7074 ft 270 kts 345°
2026-05-01 09:50 45.70607 9.17991 8253 ft 274 kts 346°
2026-05-01 09:50 45.72473 9.17271 9640 ft 282 kts 347°
2026-05-01 09:50 45.74403 9.16531 10853 ft 293 kts 347°
2026-05-01 09:50 45.76424 9.15754 11663 ft 316 kts 347°
2026-05-01 09:51 45.78628 9.14902 12422 ft 337 kts 347°
2026-05-01 09:51 45.80920 9.14005 13577 ft 344 kts 347°
2026-05-01 09:51 45.83238 9.13092 14747 ft 348 kts 347°
2026-05-01 09:51 45.85598 9.12164 15768 ft 355 kts 347°
2026-05-01 09:52 45.88008 9.11215 16812 ft 362 kts 348°
2026-05-01 09:52 45.90457 9.10254 17799 ft 367 kts 347°
2026-05-01 09:52 45.92958 9.09273 18745 ft 375 kts 348°
2026-05-01 09:52 45.95493 9.08274 19588 ft 379 kts 348°
2026-05-01 09:53 45.98044 9.07312 20045 ft 380 kts 351°
2026-05-01 09:53 46.00654 9.06746 20282 ft 379 kts 356°
2026-05-01 09:53 46.03283 9.06335 20378 ft 381 kts 356°
2026-05-01 09:53 46.05926 9.05913 20395 ft 381 kts 356°
2026-05-01 09:54 46.08527 9.05487 20393 ft 380 kts 356°
2026-05-01 09:54 46.11152 9.05057 20394 ft 381 kts 356°
2026-05-01 09:54 46.13782 9.04626 20407 ft 380 kts 356°
2026-05-01 09:54 46.16423 9.04196 20411 ft 382 kts 356°
2026-05-01 09:55 46.19096 9.03810 20674 ft 389 kts 357°
2026-05-01 09:55 46.21790 9.03463 21758 ft 386 kts 357°
2026-05-01 09:55 46.24465 9.03122 22854 ft 387 kts 357°
2026-05-01 09:55 46.27175 9.02775 23610 ft 395 kts 357°
2026-05-01 09:56 46.29930 9.02415 24437 ft 398 kts 357°
2026-05-01 09:56 46.32686 9.02051 25297 ft 398 kts 357°
2026-05-01 09:56 46.35465 9.01680 25998 ft 403 kts 357°
2026-05-01 09:56 46.38276 9.01302 26685 ft 407 kts 356°
2026-05-01 09:57 46.41104 9.00923 27435 ft 410 kts 357°
2026-05-01 09:57 46.43960 9.00538 28110 ft 414 kts 357°
2026-05-01 09:57 46.46842 9.00149 28740 ft 417 kts 356°
2026-05-01 09:57 46.49713 8.99761 29350 ft 421 kts 356°
2026-05-01 09:58 46.52643 8.99366 29933 ft 425 kts 356°
2026-05-01 09:58 46.55604 8.98967 30503 ft 428 kts 356°
2026-05-01 09:58 46.58579 8.98564 31000 ft 431 kts 356°
2026-05-01 09:58 46.61577 8.98157 31530 ft 434 kts 357°
2026-05-01 09:59 46.64582 8.97749 32154 ft 433 kts 357°
2026-05-01 09:59 46.67586 8.97340 32874 ft 431 kts 357°
2026-05-01 09:59 46.70568 8.96932 33515 ft 429 kts 357°
2026-05-01 09:59 46.73540 8.96527 34164 ft 428 kts 357°
2026-05-01 10:00 46.76473 8.96131 34589 ft 430 kts 357°
2026-05-01 10:00 46.79467 8.95725 35041 ft 431 kts 356°
2026-05-01 10:00 46.82448 8.95319 35566 ft 430 kts 356°
2026-05-01 10:00 46.85427 8.94912 36055 ft 428 kts 356°
2026-05-01 10:01 46.88388 8.94506 36251 ft 427 kts 356°
2026-05-01 10:01 46.91336 8.94103 36302 ft 426 kts 356°
2026-05-01 10:01 46.97236 8.93296 36310 ft 426 kts 356°
2026-05-01 10:02 47.03134 8.92486 36307 ft 425 kts 356°
2026-05-01 10:02 47.09051 8.91673 36308 ft 426 kts 356°
2026-05-01 10:03 47.14961 8.90858 36319 ft 426 kts 356°
2026-05-01 10:03 47.20841 8.90045 36325 ft 426 kts 356°
2026-05-01 10:04 47.26745 8.89421 36326 ft 425 kts
2026-05-01 10:04 47.32615 8.90195 36332 ft 423 kts 11°
2026-05-01 10:05 47.38366 8.92054 36332 ft 423 kts 13°
2026-05-01 10:05 47.44115 8.93924 36332 ft 423 kts 13°
2026-05-01 10:06 47.49865 8.95818 36326 ft 423 kts 13°
2026-05-01 10:06 47.55616 8.97727 36327 ft 423 kts 13°
2026-05-01 10:07 47.61366 8.99642 36328 ft 424 kts 13°
2026-05-01 10:07 47.67128 9.01564 36326 ft 424 kts 13°
2026-05-01 10:08 47.75741 9.04447 36327 ft 425 kts 13°
2026-05-01 10:09 47.81509 9.06382 36330 ft 425 kts 13°
2026-05-01 10:09 47.87279 9.08323 36329 ft 425 kts 13°
2026-05-01 10:10 47.93050 9.10268 36336 ft 425 kts 13°
2026-05-01 10:10 48.01707 9.13194 36337 ft 425 kts 13°
2026-05-01 10:11 48.07483 9.15152 36333 ft 425 kts 13°
2026-05-01 10:11 48.13259 9.17115 36327 ft 425 kts 13°
2026-05-01 10:12 48.18091 9.18520 36327 ft 426 kts
2026-05-01 10:13 48.27899 9.20154 36326 ft 426 kts
2026-05-01 10:13 48.33790 9.21157 36328 ft 426 kts
2026-05-01 10:14 48.42629 9.22654 36328 ft 426 kts
2026-05-01 10:14 48.48526 9.23654 36329 ft 426 kts
2026-05-01 10:15 48.53424 9.24486 36343 ft 426 kts
2026-05-01 10:15 48.59187 9.26293 36343 ft 424 kts 21°
2026-05-01 10:16 48.62641 9.29029 36341 ft 424 kts 34°
2026-05-01 10:16 48.64929 9.31846 36341 ft 424 kts 44°
2026-05-01 10:17 48.70010 9.40957 36324 ft 426 kts 49°
2026-05-01 10:17 48.75654 9.51360 36327 ft 426 kts 49°
2026-05-01 10:18 48.81288 9.61804 36340 ft 427 kts 50°
2026-05-01 10:19 48.85040 9.68784 36351 ft 425 kts 49°
2026-05-01 10:19 48.88748 9.75702 36356 ft 422 kts 49°
2026-05-01 10:20 48.94339 9.86165 36363 ft 425 kts 50°
2026-05-01 10:20 48.98060 9.93154 36366 ft 425 kts 50°
2026-05-01 10:21 49.03612 10.03614 36366 ft 425 kts 50°
2026-05-01 10:22 49.09170 10.14126 36115 ft 422 kts 50°
2026-05-01 10:22 49.12850 10.21110 34695 ft 422 kts 50°
2026-05-01 10:23 49.14706 10.24489 33989 ft 418 kts 46°
2026-05-01 10:23 49.18794 10.30820 32042 ft 420 kts 44°
2026-05-01 10:23 49.20856 10.34013 31015 ft 423 kts 45°
2026-05-01 10:24 49.24993 10.40429 29098 ft 420 kts 44°
2026-05-01 10:24 49.29080 10.46664 27488 ft 409 kts 44°
2026-05-01 10:25 49.32659 10.53289 25974 ft 401 kts 62°
2026-05-01 10:25 49.34023 10.61425 24360 ft 391 kts 87°
2026-05-01 10:26 49.33797 10.65510 23195 ft 388 kts 97°
2026-05-01 10:26 49.33387 10.69573 22137 ft 381 kts 97°
2026-05-01 10:26 49.32621 10.77453 20099 ft 367 kts 96°
2026-05-01 10:27 49.31891 10.85045 18096 ft 354 kts 97°
2026-05-01 10:27 49.31180 10.92419 15949 ft 345 kts 97°
2026-05-01 10:28 49.30828 10.96037 14945 ft 341 kts 97°
2026-05-01 10:28 49.30204 11.03105 12918 ft 333 kts 90°
2026-05-01 10:28 49.30549 11.06546 12018 ft 326 kts 72°
2026-05-01 10:29 49.33302 11.11833 10085 ft 326 kts 32°
2026-05-01 10:29 49.35403 11.12966 9632 ft 312 kts 13°
2026-05-01 10:30 49.39411 11.12208 8771 ft 292 kts 330°
2026-05-01 10:30 49.41625 11.07143 7374 ft 294 kts 276°
2026-05-01 10:31 49.41211 11.01055 6060 ft 288 kts 260°
2026-05-01 10:31 49.41117 10.94966 5111 ft 282 kts 272°
2026-05-01 10:32 49.41586 10.88913 5005 ft 286 kts 277°
2026-05-01 10:32 49.41883 10.85894 4996 ft 286 kts 277°
2026-05-01 10:32 49.42473 10.79833 4985 ft 286 kts 277°
2026-05-01 10:33 49.43070 10.73787 5010 ft 285 kts 277°
2026-05-01 10:33 49.43639 10.67778 5006 ft 288 kts 276°
2026-05-01 10:34 49.43916 10.64741 4988 ft 287 kts 276°
2026-05-01 10:34 49.44204 10.61699 4985 ft 288 kts 276°
2026-05-01 10:34 49.44490 10.58695 4987 ft 283 kts 276°
2026-05-01 10:35 49.45239 10.52699 4989 ft 290 kts 294°
2026-05-01 10:35 49.46440 10.50259 5002 ft 286 kts 322°
2026-05-01 10:35 49.48195 10.48898 4989 ft 283 kts 350°
2026-05-01 10:35 49.50116 10.48831 4995 ft 274 kts 13°
2026-05-01 10:36 49.53504 10.51067 4995 ft 264 kts 50°
2026-05-01 10:36 49.54505 10.53333 4848 ft 250 kts 73°
2026-05-01 10:36 49.54821 10.55888 4472 ft 246 kts 91°
2026-05-01 10:37 49.54709 10.58499 4132 ft 242 kts 99°
2026-05-01 10:37 49.54250 10.63269 4003 ft 227 kts 100°
2026-05-01 10:37 49.54019 10.65644 3995 ft 226 kts 100°
2026-05-01 10:38 49.53776 10.68053 3992 ft 228 kts 99°
2026-05-01 10:38 49.53536 10.70476 3994 ft 226 kts 99°
2026-05-01 10:38 49.53319 10.72735 4015 ft 202 kts 100°
2026-05-01 10:38 49.53118 10.74749 3988 ft 176 kts 100°
2026-05-01 10:39 49.52953 10.76477 3999 ft 153 kts 100°
2026-05-01 10:39 49.52806 10.77976 3991 ft 128 kts 101°
2026-05-01 10:39 49.52670 10.79284 3995 ft 126 kts 101°
2026-05-01 10:39 49.52546 10.80577 3924 ft 119 kts 101°
2026-05-01 10:40 49.52424 10.81862 3836 ft 124 kts 99°
2026-05-01 10:40 49.52293 10.83164 3797 ft 127 kts 99°
2026-05-01 10:40 49.52160 10.84469 3669 ft 120 kts 99°
2026-05-01 10:40 49.52030 10.85780 3583 ft 129 kts 98°
2026-05-01 10:41 49.51899 10.87114 3447 ft 123 kts 98°
2026-05-01 10:41 49.51775 10.88411 3286 ft 123 kts 99°
2026-05-01 10:41 49.51519 10.91036 2984 ft 114 kts 100°
2026-05-01 10:42 49.51396 10.92292 2830 ft 122 kts 99°
2026-05-01 10:42 49.51269 10.93590 2646 ft 120 kts 99°
2026-05-01 10:42 49.51141 10.94898 2495 ft 124 kts 99°
2026-05-01 10:42 49.51010 10.96207 2335 ft 124 kts 99°
2026-05-01 10:43 49.50886 10.97490 2157 ft 119 kts 99°
2026-05-01 10:43 49.50753 10.98806 2002 ft 122 kts 100°
2026-05-01 10:43 49.50630 11.00097 1839 ft 124 kts 98°
2026-05-01 10:43 49.50497 11.01427 1654 ft 119 kts 97°
2026-05-01 10:44 49.50372 11.02656 1520 ft 120 kts 101°
2026-05-01 10:44 49.50240 11.04001 1310 ft 130 kts 100°
2026-05-01 10:44 49.50111 11.05297 1164 ft 119 kts 98°
2026-05-01 10:44 49.49993 11.06559 1036 ft 112 kts 99°
2026-05-01 10:45 49.49893 11.07577 1031 ft 64 kts 98°
2026-05-01 10:45 49.49864 11.07859 1034 ft 21 kts 98°
2026-05-01 10:45 49.49839 11.08118 1028 ft 27 kts 99°
2026-05-01 10:45 49.49811 11.08406 1029 ft 24 kts 99°
2026-05-01 10:46 49.49742 11.08558 1029 ft 19 kts 173°
2026-05-01 10:46 49.49656 11.08468 1030 ft 0 kts 234°
2026-05-01 10:47 49.49653 11.08462 1030 ft 3 kts 234°
2026-05-01 10:47 49.49620 11.08392 1030 ft 12 kts 232°
2026-05-01 10:47 49.49586 11.08366 1032 ft 8 kts 190°
2026-05-01 10:47 49.49534 11.08330 1032 ft 7 kts 244°
2026-05-01 10:48 49.49536 11.08276 1031 ft 3 kts 280°
2026-05-01 10:48 49.49540 11.08240 1030 ft 3 kts 280°
2026-05-01 10:48 49.49544 11.08196 1030 ft 4 kts 278°
2026-05-01 10:48 49.49553 11.08104 1029 ft 12 kts 278°
2026-05-01 10:49 49.49566 11.07980 1030 ft 0 kts 279°
2026-05-01 10:49 49.49568 11.07962 1030 ft 6 kts 277°
2026-05-01 10:49 49.49571 11.07914 1030 ft 5 kts 274°
2026-05-01 10:49 49.49567 11.07886 1030 ft 3 kts 244°
2026-05-01 10:50 49.49533 11.07862 1026 ft 5 kts 189°
2026-05-01 10:50 49.49507 11.07856 1027 ft 4 kts 188°
2026-05-01 10:51 49.49510 11.07857 1026 ft 0 kts 188°